Powrót do katalogu

CZ-2D DEB

AktywnySSO
NORAD 38299·DEBRIS·🇨🇳 China

Wystrzelony Jun 15, 2010 z Jiuquan Satellite Launch Center

Loading…

Następne Przeloty (najbliższe 24 godziny)

TLE

ŚwieżeSource: Space-Track

Epoka: Sep 14, 2026, 09:55 UTC

1 38299U 10027D   26257.41331671  .00057946  00000-0  12879-2 0  9999
2 38299  97.6323 128.1860 0042217  30.0247 330.3407 15.42519872864766

Śledź CZ-2D DEB w czasie rzeczywistym z AllMySat

Download on the App Store